Michigan City, IN

1:23 AM CST on February 10, 2016 (GMT -0600)
Michigan City Municipal

Weather History for KMGC - November, 2012

Change the Weather History Date:

Monday, November 26, 2012

  Actual Average (KVPZ) Record (KVPZ)
Temperature  
Mean Temperature 35 °F 36 °F  
Max Temperature 37 °F 43 °F 63 °F (2015)
Min Temperature 32 °F 29 °F 19 °F (2010)
Degree Days  
Heating Degree Days 30 29  
Month to date heating degree days 605  
Since 1 July heating degree days 1135  
Cooling Degree Days 0 0  
Month to date cooling degree days 0  
Year to date cooling degree days 713  
Moisture  
Dew Point 24 °F    
Average Humidity 67    
Maximum Humidity 81    
Minimum Humidity 56    
Precipitation  
Precipitation 0.00 in 0.10 in 0.19 in (2009)
Month to date precipitation 2.92  
Year to date precipitation 34.92  
Sea Level Pressure  
Sea Level Pressure 30.21 in    
Wind  
Wind Speed 5 mph ()    
Max Wind Speed 12 mph    
Max Gust Speed -    
Visibility 10.0 miles    
Events      
T = Trace of Precipitation, MM = Missing Value Source: Averaged Metar Reports

Daily Weather History Graph

Daily Weather History Graph

Search for Another Location

Airport or City:

Trip Planner

Search our weather history database for the weather conditions in past years. The results will help you decide how hot, cold, wet, or windy it might be!

Date:

Astronomy

Nov. 26, 2012 Rise Set
Actual Time 6:49 AM CST 4:19 PM CST
Civil Twilight 6:19 AM CST 4:49 PM CST
Nautical Twilight 5:44 AM CST 5:24 PM CST
Astronomical Twilight 5:11 AM CST 5:57 PM CST
Moon 3:12 PM CST (11/26) 4:58 AM CST (11/26)
Length of Visible Light 10h 30m
Length of Day
9h 29m
Waxing Gibbous, 97% of the Moon is Illuminated
Nov 26
Waxing Gibbous
Nov 28
Full
Dec 6
Last Quarter
Dec 13
New
Dec 19
First Quarter

Hourly Weather History & Observations

Time (CST) Temp. Windchill Dew Point Humidity Pressure Visibility Wind Dir Wind Speed Gust Speed Precip Events Conditions
12:15 AM 35.6 °F 31.7 °F 26.6 °F 70% 30.05 in 10.0 mi NW 4.6 mph - N/A   Scattered Clouds
12:35 AM 35.6 °F 32.8 °F 26.6 °F 70% 30.05 in 10.0 mi NNW 3.5 mph - N/A   Clear
12:55 AM 35.6 °F 31.7 °F 26.6 °F 70% 30.06 in 10.0 mi NNW 4.6 mph - N/A   Clear
1:15 AM 35.6 °F 32.8 °F 26.6 °F 70% 30.07 in 10.0 mi NW 3.5 mph - N/A   Clear
1:35 AM 35.6 °F - 26.6 °F 70% 30.07 in 10.0 mi Calm Calm - N/A   Clear
1:55 AM 35.6 °F 32.8 °F 26.6 °F 70% 30.08 in 10.0 mi NW 3.5 mph - N/A   Scattered Clouds
2:15 AM 33.8 °F 29.6 °F 26.6 °F 75% 30.08 in 10.0 mi NNW 4.6 mph - N/A   Scattered Clouds
2:35 AM 33.8 °F 30.8 °F 28.4 °F 81% 30.09 in 10.0 mi NW 3.5 mph - N/A   Scattered Clouds
2:55 AM 33.8 °F 30.8 °F 28.4 °F 81% 30.09 in 10.0 mi NW 3.5 mph - N/A   Scattered Clouds
3:15 AM 33.8 °F 30.8 °F 26.6 °F 75% 30.10 in 10.0 mi NW 3.5 mph - N/A   Scattered Clouds
3:35 AM 35.6 °F 30.7 °F 28.4 °F 75% 30.10 in 10.0 mi NNW 5.8 mph - N/A   Mostly Cloudy
3:55 AM 33.8 °F - 28.4 °F 81% 30.10 in 10.0 mi Calm Calm - N/A   Mostly Cloudy
4:15 AM 35.6 °F - 28.4 °F 75% 30.11 in 10.0 mi Calm Calm - N/A   Overcast
4:35 AM 33.8 °F 28.6 °F 28.4 °F 81% 30.12 in 10.0 mi NNW 5.8 mph - N/A   Overcast
4:55 AM 33.8 °F 29.6 °F 28.4 °F 81% 30.13 in 10.0 mi NNW 4.6 mph - N/A   Overcast
5:15 AM 33.8 °F 28.6 °F 28.4 °F 81% 30.13 in 10.0 mi NNW 5.8 mph - N/A   Mostly Cloudy
5:35 AM 33.8 °F 27.7 °F 28.4 °F 81% 30.13 in 10.0 mi NNW 6.9 mph - N/A   Overcast
5:55 AM 33.8 °F 29.6 °F 28.4 °F 81% 30.14 in 10.0 mi NNW 4.6 mph - N/A   Overcast
6:15 AM 33.8 °F 30.8 °F 26.6 °F 75% 30.15 in 10.0 mi NW 3.5 mph - N/A   Overcast
6:35 AM 33.8 °F 30.8 °F 26.6 °F 75% 30.16 in 10.0 mi NW 3.5 mph - N/A   Overcast
6:55 AM 33.8 °F - 26.6 °F 75% 30.17 in 10.0 mi Calm Calm - N/A   Overcast
7:15 AM 33.8 °F - 26.6 °F 75% 30.18 in 10.0 mi Calm Calm - N/A   Overcast
7:35 AM 33.8 °F 30.8 °F 26.6 °F 75% 30.18 in 10.0 mi WNW 3.5 mph - N/A   Mostly Cloudy
7:55 AM 35.6 °F 29.9 °F 26.6 °F 70% 30.19 in 10.0 mi NNW 6.9 mph - N/A   Mostly Cloudy
8:15 AM 35.6 °F 30.7 °F 26.6 °F 70% 30.20 in 10.0 mi NNW 5.8 mph - N/A   Overcast
8:35 AM 35.6 °F 30.7 °F 26.6 °F 70% 30.20 in 10.0 mi NNW 5.8 mph - N/A   Overcast
8:55 AM 35.6 °F 28.6 °F 24.8 °F 65% 30.20 in 10.0 mi North 9.2 mph - N/A   Overcast
9:15 AM 35.6 °F 28.6 °F 23.0 °F 60% 30.21 in 10.0 mi North 9.2 mph - N/A   Mostly Cloudy
9:55 AM 35.6 °F 29.2 °F 23.0 °F 60% 30.22 in 10.0 mi NNW 8.1 mph - N/A   Scattered Clouds
10:15 AM 35.6 °F 28.6 °F 23.0 °F 60% 30.23 in 10.0 mi North 9.2 mph - N/A   Mostly Cloudy
10:35 AM 35.6 °F 29.2 °F 23.0 °F 60% 30.23 in 10.0 mi North 8.1 mph - N/A   Mostly Cloudy
10:55 AM 35.6 °F 30.7 °F 23.0 °F 60% 30.22 in 10.0 mi NNW 5.8 mph - N/A   Overcast
11:15 AM 37.4 °F 32.1 °F 23.0 °F 56% 30.22 in 10.0 mi NNE 6.9 mph - N/A   Mostly Cloudy
11:35 AM 35.6 °F 27.5 °F 21.2 °F 56% 30.22 in 10.0 mi NNW 11.5 mph - N/A   Mostly Cloudy
11:55 AM 37.4 °F 32.1 °F 23.0 °F 56% 30.21 in 10.0 mi North 6.9 mph - N/A   Mostly Cloudy
12:15 PM 35.6 °F 29.9 °F 21.2 °F 56% 30.22 in 10.0 mi NNW 6.9 mph - N/A   Scattered Clouds
12:35 PM 35.6 °F 30.7 °F 21.2 °F 56% 30.22 in 10.0 mi NNW 5.8 mph - N/A   Mostly Cloudy
12:55 PM 35.6 °F 30.7 °F 21.2 °F 56% 30.23 in 10.0 mi NW 5.8 mph - N/A   Overcast
1:15 PM 35.6 °F 29.2 °F 23.0 °F 60% 30.23 in 10.0 mi North 8.1 mph - N/A   Overcast
1:35 PM 35.6 °F 28.6 °F 23.0 °F 60% 30.23 in 10.0 mi North 9.2 mph - N/A   Overcast
1:55 PM 33.8 °F 28.6 °F 23.0 °F 65% 30.23 in 10.0 mi NW 5.8 mph - N/A   Overcast
2:15 PM 33.8 °F 27.0 °F 23.0 °F 65% 30.23 in 10.0 mi NW 8.1 mph - N/A   Overcast
2:35 PM 33.8 °F 27.7 °F 21.2 °F 60% 30.24 in 10.0 mi NW 6.9 mph - N/A   Overcast
2:55 PM 33.8 °F 27.0 °F 23.0 °F 65% 30.24 in 10.0 mi NNW 8.1 mph - N/A   Overcast
3:15 PM 33.8 °F 28.6 °F 21.2 °F 60% 30.25 in 10.0 mi NNW 5.8 mph - N/A   Overcast
3:35 PM 33.8 °F 26.4 °F 21.2 °F 60% 30.24 in 10.0 mi North 9.2 mph - N/A   Overcast
3:55 PM 33.8 °F 27.0 °F 21.2 °F 60% 30.24 in 10.0 mi NNW 8.1 mph - N/A   Overcast
4:15 PM 33.8 °F 27.7 °F 21.2 °F 60% 30.24 in 10.0 mi NNW 6.9 mph - N/A   Overcast
4:35 PM 33.8 °F 27.7 °F 23.0 °F 65% 30.24 in 10.0 mi North 6.9 mph - N/A   Overcast
4:55 PM 33.8 °F 27.7 °F 23.0 °F 65% 30.24 in 10.0 mi North 6.9 mph - N/A   Overcast
5:15 PM 33.8 °F 25.8 °F 23.0 °F 65% 30.25 in 10.0 mi North 10.4 mph - N/A   Overcast
5:35 PM 33.8 °F 28.6 °F 23.0 °F 65% 30.27 in 10.0 mi NW 5.8 mph - N/A   Overcast
5:55 PM 33.8 °F 27.7 °F 23.0 °F 65% 30.27 in 10.0 mi NNW 6.9 mph - N/A   Overcast
6:15 PM 33.8 °F 27.7 °F 23.0 °F 65% 30.28 in 10.0 mi NNW 6.9 mph - N/A   Overcast
6:35 PM 33.8 °F 28.6 °F 23.0 °F 65% 30.29 in 10.0 mi NW 5.8 mph - N/A   Overcast
6:55 PM 33.8 °F 27.7 °F 23.0 °F 65% 30.29 in 10.0 mi NNW 6.9 mph - N/A   Overcast
7:15 PM 33.8 °F 27.0 °F 23.0 °F 65% 30.29 in 10.0 mi NNW 8.1 mph - N/A   Overcast
7:35 PM 33.8 °F 27.7 °F 23.0 °F 65% 30.29 in 10.0 mi NNW 6.9 mph - N/A   Overcast
7:55 PM 33.8 °F 28.6 °F 23.0 °F 65% 30.29 in 10.0 mi NNW 5.8 mph - N/A   Overcast
8:15 PM 33.8 °F 27.7 °F 23.0 °F 65% 30.29 in 10.0 mi NNW 6.9 mph - N/A   Overcast
8:35 PM 33.8 °F 27.7 °F 23.0 °F 65% 30.30 in 10.0 mi North 6.9 mph - N/A   Overcast
8:55 PM 33.8 °F 27.0 °F 23.0 °F 65% 30.30 in 10.0 mi NNW 8.1 mph - N/A   Overcast
9:15 PM 33.8 °F 27.7 °F 23.0 °F 65% 30.31 in 10.0 mi NNW 6.9 mph - N/A   Overcast
9:35 PM 33.8 °F 26.4 °F 23.0 °F 65% 30.31 in 10.0 mi NNW 9.2 mph - N/A   Overcast
9:55 PM 33.8 °F 27.7 °F 23.0 °F 65% 30.31 in 10.0 mi NNW 6.9 mph - N/A   Overcast
10:15 PM 33.8 °F 29.6 °F 23.0 °F 65% 30.32 in 10.0 mi NNW 4.6 mph - N/A   Overcast
10:35 PM 33.8 °F 29.6 °F 23.0 °F 65% 30.32 in 10.0 mi NNW 4.6 mph - N/A   Overcast
10:55 PM 33.8 °F 28.6 °F 23.0 °F 65% 30.32 in 10.0 mi NNW 5.8 mph - N/A   Overcast
11:15 PM 33.8 °F 27.7 °F 23.0 °F 65% 30.32 in 10.0 mi NNW 6.9 mph - N/A   Overcast
11:35 PM 33.8 °F 27.0 °F 21.2 °F 60% 30.33 in 10.0 mi NNW 8.1 mph - N/A   Overcast
11:55 PM 32.0 °F 25.6 °F 21.2 °F 64% 30.33 in 10.0 mi NW 6.9 mph - N/A   Overcast